Lexington Weather

Lexington, Massachusetts, USA

34°F
4/16/2021 10:35am 
  • Lexington Conditions: Snow, Fog, Overcast
  • Temperature: 34.0°F / 1.1°C 
  • Dew Point: 32.7°F 
  • Relative Humidity: 95
  • Wind: Calm, 10-min avg: Calm, gust: None
  • Barometer: 29.48 in Steady
  • Visibility: ½ mile
  • Snow Today: 1.3 in
  •   

Regional Weather Roundup
for Boston / Norton, MA

        
000
ASUS41 KBOX 132105
RWRBOX

REGIONAL WEATHER ROUNDUP
NATIONAL WEATHER SERVICE BOSTON/NORTON MA
500 PM EDT TUE APR 13 2021

NOTE:  "FAIR" INDICATES FEW OR NO CLOUDS BELOW 12,000 FEET WITH NO 
SIGNIFICANT WEATHER AND/OR OBSTRUCTIONS TO VISIBILITY.

MAZALL-132200-
EASTERN MASSACHUSETTS
  
CITY           SKY/WX    TMP DP  RH WIND       PRES   REMARKS
BOSTON         MOSUNNY   52  41  66 SE6       30.03S                  
BEVERLY        NOT AVBL                                               
LAWRENCE       PTSUNNY   62  41  46 VRB6      30.03S                  
BEDFORD        PTSUNNY   62  41  46 SE9       30.00S                  
BLUE HILL        N/A     54  39  57 E9G18     30.01S                  
NORWOOD        SUNNY     58  39  49 E9        30.02S                  
MARSHFIELD     SUNNY     54  41  62 VRB3      30.03S                  
PLYMOUTH       SUNNY     53  39  59 NE8G20    30.02R                  
TAUNTON        SUNNY     58  39  49 VRB7      30.02R                  
NEW BEDFORD    MOSUNNY   56  39  53 NE17      30.01S                  
$$

MAZALL-132200-
CAPE COD AND THE ISLANDS
  
CITY           SKY/WX    TMP DP  RH WIND       PRES   REMARKS
FALMOUTH       SUNNY     52  39  62 NE14G22   30.02R                  
HYANNIS        SUNNY     52  41  66 N13       30.00R                  
CHATHAM        SUNNY     51  40  65 NE13G21   30.01R                  
PROVINCETOWN     N/A     49  43  80 N7        30.03                   
NANTUCKET      SUNNY     49  41  74 N18       30.00R                  
MARTHAS VNYRD  MOSUNNY   54  40  59 NE18      30.01R                  
$$
 
MAZALL-132200-
CENTRAL AND WESTERN MASSACHUSETTS
  
CITY           SKY/WX    TMP DP  RH WIND       PRES   REMARKS
WORCESTER      CLOUDY    60  39  45 NE7       30.01R                  
FITCHBURG      CLOUDY    64  41  42 N7        30.00S                  
ORANGE         CLOUDY    64  40  41 NE7       30.00R                  
SPRINGFIELD    CLOUDY    64  40  40 NE3       29.97S                  
WESTFIELD      CLOUDY    65  42  43 NE7       29.98S                  
NORTH ADAMS    CLOUDY    63  41  44 W3        29.99S                  
PITTSFIELD     CLOUDY    60  41  49 W5        29.99R                  
$$
 
RIZALL-132200-
RHODE ISLAND
  
CITY           SKY/WX    TMP DP  RH WIND       PRES   REMARKS
PROVIDENCE     MOSUNNY   61  40  45 NE15      30.01F                  
NEWPORT        SUNNY     56  39  53 N13       30.01S                  
BLOCK ISLAND   SUNNY     48  40  73 E14       30.03S                  
SMITHFIELD     SUNNY     60  42  51 N12G17    30.01S                  
WESTERLY       MOSUNNY   59  39  47 N9        30.00S                  
$$
 
CTZALL-132200-
CONNECTICUT
  
CITY           SKY/WX    TMP DP  RH WIND       PRES   REMARKS
BRADLEY INTL   PTSUNNY   66  41  40 N9        29.98R                  
HARTFORD       CLOUDY    65  41  41 N6        29.98S                  
BRIDGEPORT     PTSUNNY   58  43  57 SW12      29.99S                  
DANBURY        CLOUDY    65  42  43 N8        30.01R                  
GROTON         SUNNY     52  43  71 S6        30.01R                  
NEW HAVEN      CLOUDY    56  44  64 S9        30.00R                  
CHESTER        FAIR      61  37  41 SE12      30.01R                  
MERIDEN        CLOUDY    65  40  39 VRB5      29.99R                  
WILLIMANTIC    SUNNY     64  40  41 E7        30.01R                  
OXFORD         CLOUDY    61  42  49 NW6       30.00R                  
$$

MEZ002-015-021-024-NHZ003-005-008-011-012-014-VTZ005-008-132200-
NORTHERN NEW ENGLAND
  
CITY           SKY/WX    TMP DP  RH WIND       PRES   REMARKS
PORTLAND ME    CLOUDY    60  40  47 E6        30.00S                  
BANGOR ME      MOSUNNY   62  35  36 NE12      30.00F                  
CONCORD NH     CLOUDY    65  39  38 N3        30.00S                  
MANCHESTER NH  PTSUNNY   65  39  38 CALM      29.98F                  
NASHUA NH      CLOUDY    65  41  41 E6        30.00S                  
PORTSMOUTH NH  MOSUNNY   62  36  38 CALM      30.01S                  
JAFFREY NH     CLOUDY    62  39  42 CALM      30.00S                  
KEENE NH       CLOUDY    64  41  42 SE5       29.99S                  
BURLINGTON VT  MOSUNNY   66  39  37 NW14      30.00S                  
MT. WASHINGTON CLOUDY    36  34  93 N9          N/A  WCI  29          
$$

NYZ052-076-132200-
EASTERN NEW YORK
  
CITY           SKY/WX    TMP DP  RH WIND       PRES   REMARKS
ALBANY         PTSUNNY   64  42  44 NW6       30.00S                  
NEW YORK CITY  MOSUNNY   63  39  41 N8        30.01S                  
$$
 
ANZALL-132200-
MARINE OBSERVATIONS
  
STATION/POSITION TIME  TEMP    WIND        PRES    VSBY  WAVE
                       AIR SEA DIR/SP/G                  HT/PER
                 (UTC) (F)     (DEG/KT/KT) (MB)    (MI)  (FT/S)
BOSTON BUOY      2050   47 46  260/  2/  6 1017.1F         5/ 8
BUZZARDS BAY     2000           50/ 16/ 17 1017.4R
NANTUCKET SOUND  2050      47                N/A           3/ 4
MASS BAY-STELLWA 2004   49      80/  2/  2 1015.8S  1 7/8  5/ 8
ISLE OF SHOALS   2000   49     160/  5/  5 1015.9F
S OF BLOCK IS    2026      44                N/A           4/ 8
$$

......................KEY.........................
  SKY/WX - SKY CONDITION/PRESENT WEATHER
  TMP    - TEMPERATURE IN FAHRENHEIT
  DWPT   - DEWPOINT IN FAHRENHEIT
  RH     - RELATIVE HUMIDITY IN PERCENT
  WIND   - DIRECTION AND SPEED IN MPH
  PRES   - MEAN SEA LEVEL PRESSURE IN INCHES OF HG
  WCI    - WIND CHILL INDEX
  VSB    - VISIBILITY IN MILES
  HX     - HEAT INDEX
  TC     - TEMPERATURE IN CELSIUS
  VRB    - VARIABLE WIND DIRECTION
  N/A    - NOT AVAILABLE
  
      

Other recent Regional Weather Roundups

Fri Apr 16, 10:05am

Fri Apr 16, 9:04am

Fri Apr 16, 8:04am

Fri Apr 16, 7:04am

Fri Apr 16, 6:04am

Fri Apr 16, 5:04am

Fri Apr 16, 4:04am

Fri Apr 16, 3:04am

Fri Apr 16, 2:04am

Fri Apr 16, 1:04am

Fri Apr 16, 12:04am

Thu Apr 15, 11:05pm

Thu Apr 15, 10:04pm

Thu Apr 15, 9:04pm

Thu Apr 15, 8:04pm

Thu Apr 15, 7:05pm

Thu Apr 15, 6:04pm

Thu Apr 15, 5:05pm

Thu Apr 15, 4:04pm

Thu Apr 15, 3:05pm

Thu Apr 15, 2:04pm

Thu Apr 15, 1:05pm

Thu Apr 15, 12:04pm

Thu Apr 15, 11:04am

Thu Apr 15, 10:05am

Thu Apr 15, 9:04am

Thu Apr 15, 8:04am

Thu Apr 15, 7:04am

Thu Apr 15, 6:04am

Thu Apr 15, 5:04am

Thu Apr 15, 4:04am

Thu Apr 15, 3:04am

Thu Apr 15, 2:04am

Thu Apr 15, 1:04am

Thu Apr 15, 12:04am

Wed Apr 14, 11:04pm

Wed Apr 14, 10:04pm

Wed Apr 14, 9:04pm

Wed Apr 14, 8:04pm

Wed Apr 14, 7:04pm

Wed Apr 14, 6:04pm

Wed Apr 14, 5:05pm

Wed Apr 14, 4:04pm

Wed Apr 14, 3:05pm

Wed Apr 14, 2:04pm

Wed Apr 14, 1:05pm

Wed Apr 14, 12:04pm

Wed Apr 14, 11:04am

Wed Apr 14, 10:04am

Wed Apr 14, 9:04am

Wed Apr 14, 8:04am

Wed Apr 14, 7:04am

Wed Apr 14, 6:04am

Wed Apr 14, 5:04am

Wed Apr 14, 4:04am

Wed Apr 14, 3:04am

Wed Apr 14, 2:04am

Wed Apr 14, 1:04am

Wed Apr 14, 12:04am

Tue Apr 13, 11:04pm

Tue Apr 13, 10:05pm

Tue Apr 13, 9:05pm

Tue Apr 13, 8:05pm

Tue Apr 13, 7:04pm

Tue Apr 13, 6:04pm

Tue Apr 13, 4:04pm

Tue Apr 13, 3:04pm

Tue Apr 13, 2:05pm

Tue Apr 13, 1:04pm

Tue Apr 13, 12:05pm

Tue Apr 13, 11:05am

Tue Apr 13, 10:04am

Tue Apr 13, 9:04am

Tue Apr 13, 8:04am

Tue Apr 13, 7:04am

Tue Apr 13, 6:04am

Tue Apr 13, 5:04am

Tue Apr 13, 4:04am

Tue Apr 13, 3:04am

Tue Apr 13, 2:04am

Tue Apr 13, 1:04am

Tue Apr 13, 12:05am

Mon Apr 12, 11:04pm

Mon Apr 12, 10:04pm

Mon Apr 12, 9:04pm

Mon Apr 12, 8:04pm

Mon Apr 12, 7:05pm

Mon Apr 12, 6:04pm

Mon Apr 12, 5:04pm

Mon Apr 12, 4:04pm

Mon Apr 12, 3:05pm

Mon Apr 12, 2:04pm

Mon Apr 12, 1:05pm

Mon Apr 12, 12:04pm

Mon Apr 12, 11:04am

Mon Apr 12, 10:04am

Mon Apr 12, 9:04am

Mon Apr 12, 8:04am

Mon Apr 12, 7:04am

Mon Apr 12, 6:04am

Mon Apr 12, 5:04am

Mon Apr 12, 4:04am

Mon Apr 12, 3:04am

Mon Apr 12, 2:04am

Mon Apr 12, 1:05am

Mon Apr 12, 12:04am

Sun Apr 11, 11:04pm

Sun Apr 11, 10:04pm

Sun Apr 11, 9:04pm

Sun Apr 11, 8:04pm

Sun Apr 11, 7:04pm

Sun Apr 11, 6:05pm

Sun Apr 11, 5:05pm

Sun Apr 11, 4:04pm

Sun Apr 11, 3:05pm

Sun Apr 11, 2:05pm

Sun Apr 11, 1:05pm

Sun Apr 11, 12:04pm

Sun Apr 11, 11:05am

Sun Apr 11, 10:05am

Sun Apr 11, 9:04am

Sun Apr 11, 8:04am

Sun Apr 11, 7:04am

Sun Apr 11, 6:04am

Sun Apr 11, 5:04am

Sun Apr 11, 4:04am

Sun Apr 11, 3:04am

Sun Apr 11, 2:04am

Sun Apr 11, 1:05am

Sun Apr 11, 12:04am

Sat Apr 10, 11:05pm

Sat Apr 10, 10:04pm

Sat Apr 10, 9:04pm

Sat Apr 10, 8:04pm

Sat Apr 10, 7:05pm

Sat Apr 10, 6:04pm

Sat Apr 10, 5:04pm

Sat Apr 10, 4:04pm

Sat Apr 10, 3:04pm

Sat Apr 10, 2:05pm

Sat Apr 10, 1:04pm

Sat Apr 10, 12:04pm

Sat Apr 10, 11:04am

Sat Apr 10, 10:04am

Sat Apr 10, 9:04am

Sat Apr 10, 8:04am

Sat Apr 10, 7:04am

Sat Apr 10, 6:04am

Sat Apr 10, 5:04am

Sat Apr 10, 4:04am

Sat Apr 10, 3:04am

Sat Apr 10, 2:04am

Sat Apr 10, 1:05am

Sat Apr 10, 12:04am

Fri Apr 9, 11:04pm

Fri Apr 9, 10:05pm

Fri Apr 9, 9:04pm

Fri Apr 9, 8:05pm

Fri Apr 9, 7:05pm

Fri Apr 9, 6:04pm

Fri Apr 9, 5:04pm

Fri Apr 9, 4:05pm

Fri Apr 9, 3:05pm

Fri Apr 9, 2:04pm

Fri Apr 9, 1:04pm

Fri Apr 9, 12:04pm

Fri Apr 9, 11:05am

Meta data:

ID: 9d26e02a-36f0-4d78-92d2-ce64277b6efb
Link: https://api.weather.gov/products/9d26e02a-36f0-4d78-92d2-ce64277b6efb